Boonville, MO

12:47 AM CDT on September 27, 2016 (GMT -0500)
Viertel Memorial

Weather History for KVER - February, 2014

Change the Weather History Date:

Wednesday, February 5, 2014

  Actual Average Record
Temperature  
Mean Temperature 11 °F -  
Max Temperature 18 °F 35 °F 75 °F (1962)
Min Temperature 4 °F 17 °F -7 °F (1979)
Degree Days  
Heating Degree Days 54    
Moisture  
Dew Point 5 °F    
Average Humidity 74    
Maximum Humidity 94    
Minimum Humidity 63    
Precipitation  
Precipitation 0.00 in - - ()
Sea Level Pressure  
Sea Level Pressure 30.42 in    
Wind  
Wind Speed 11 mph (NW)    
Max Wind Speed 20 mph    
Max Gust Speed 28 mph    
Visibility 7 miles    
Events Snow    
Averages and records for this station are not official NWS values.
T = Trace of Precipitation, MM = Missing Value Source: NWS Daily Summary

Daily Weather History Graph

Daily Weather History Graph

Search for Another Location

Airport or City:

Trip Planner

Search our weather history database for the weather conditions in past years. The results will help you decide how hot, cold, wet, or windy it might be!

Date:

Astronomy

Feb. 05, 2014 Rise Set
Actual Time 7:13 AM CST 5:36 PM CST
Civil Twilight 6:45 AM CST 6:04 PM CST
Nautical Twilight 6:13 AM CST 6:36 PM CST
Astronomical Twilight 5:42 AM CST 7:07 PM CST
Moon 10:32 AM CST (2/5) No Moon Set
Length of Visible Light 11h 19m
Length of Day
10h 23m
Waxing Crescent, 39% of the Moon is Illuminated
Feb 5
Waxing Crescent
Feb 6
First Quarter
Feb 14
Full
Feb 22
Last Quarter
Mar 1
New

Hourly Weather History & Observations

Time (CST) Temp. Windchill Dew Point Humidity Pressure Visibility Wind Dir Wind Speed Gust Speed Precip Events Conditions
12:15 AM 18.9 °F 7.2 °F 16.7 °F 91% 30.06 in 2.5 mi North 10.4 mph - N/A Snow Light Snow
12:35 AM 18.7 °F 5.7 °F 16.7 °F 92% 30.06 in 3.0 mi North 12.7 mph - N/A Snow Light Snow
12:55 AM 18.7 °F 8.6 °F 16.7 °F 92% 30.07 in 3.0 mi NNW 8.1 mph - N/A Snow Light Snow
1:15 AM 18.5 °F 8.4 °F 16.7 °F 93% 30.08 in 2.5 mi NNW 8.1 mph - N/A Snow Light Snow
1:35 AM 18.5 °F 9.3 °F 16.9 °F 93% 30.10 in 1.5 mi NW 6.9 mph - N/A Snow Light Snow
1:55 AM 18.5 °F 6.1 °F 17.1 °F 94% 30.11 in 1.0 mi NNW 11.5 mph - N/A Snow Snow
2:15 AM 18.5 °F 6.8 °F 16.7 °F 93% 30.12 in 0.8 mi NNW 10.4 mph - N/A Snow Snow
2:35 AM 18.1 °F 6.3 °F 16.5 °F 93% 30.13 in 1.0 mi NNW 10.4 mph - N/A Snow Snow
2:55 AM 17.8 °F 5.9 °F 16.3 °F 94% 30.14 in 1.0 mi NW 10.4 mph - N/A Snow Light Snow
3:15 AM 17.6 °F 3.7 °F 15.8 °F 93% 30.15 in 1.5 mi NNW 13.8 mph 19.6 mph N/A Snow Light Snow
3:35 AM 17.4 °F 4.7 °F 15.1 °F 91% 30.16 in 1.8 mi NNW 11.5 mph 18.4 mph N/A Snow Light Snow
3:55 AM 17.2 °F 5.2 °F 14.9 °F 91% 30.18 in 2.0 mi NW 10.4 mph - N/A Snow Light Snow
4:15 AM 17.1 °F 4.3 °F 14.2 °F 88% 30.19 in 3.0 mi NW 11.5 mph 23.0 mph N/A Snow Light Snow
4:35 AM 16.5 °F 3.0 °F 12.7 °F 85% 30.20 in 3.0 mi NW 12.7 mph 20.7 mph N/A Snow Light Snow
4:55 AM 15.8 °F -0.2 °F 12.0 °F 85% 30.22 in 4.0 mi NW 17.3 mph 25.3 mph N/A Snow Light Snow
5:15 AM 15.3 °F -0.9 °F 10.4 °F 81% 30.24 in 10.0 mi NW 17.3 mph 24.2 mph N/A Snow Light Snow
5:35 AM 14.9 °F -0.8 °F 9.5 °F 79% 30.26 in 10.0 mi NW 16.1 mph 23.0 mph N/A Snow Light Snow
5:55 AM 14.0 °F -0.8 °F 8.4 °F 78% 30.28 in 10.0 mi NW 13.8 mph 21.9 mph N/A Snow Light Snow
6:15 AM 12.9 °F -4.4 °F 7.5 °F 79% 30.30 in 4.0 mi NW 18.4 mph 26.5 mph N/A Snow Light Snow
6:35 AM 12.0 °F -6.0 °F 6.6 °F 79% 30.31 in 3.0 mi NW 19.6 mph 27.6 mph N/A Snow Light Snow
6:55 AM 11.1 °F -6.2 °F 5.7 °F 79% 30.33 in 5.0 mi NW 17.3 mph 23.0 mph N/A Snow Light Snow
7:15 AM 10.4 °F -4.1 °F 4.6 °F 78% 30.36 in 5.0 mi NW 11.5 mph 21.9 mph N/A Snow Light Snow
7:35 AM 9.7 °F -7.5 °F 3.7 °F 77% 30.37 in 10.0 mi NW 16.1 mph 21.9 mph N/A Snow Light Snow
7:55 AM 9.1 °F -6.4 °F 3.0 °F 76% 30.38 in 10.0 mi NW 12.7 mph 24.2 mph N/A   Overcast
8:15 AM 9.1 °F -7.0 °F 3.0 °F 76% 30.39 in 7.0 mi NW 13.8 mph 19.6 mph N/A Snow Light Snow
8:35 AM 9.3 °F -6.8 °F 3.0 °F 76% 30.41 in 5.0 mi NW 13.8 mph 23.0 mph N/A Snow Light Snow
8:55 AM 9.7 °F -5.7 °F 2.8 °F 74% 30.42 in 2.0 mi NW 12.7 mph 21.9 mph N/A Snow Light Snow
9:15 AM 10.2 °F -5.0 °F 2.5 °F 71% 30.43 in 7.0 mi NW 12.7 mph 18.4 mph N/A Snow Light Snow
9:35 AM 10.4 °F -6.6 °F 2.3 °F 70% 30.44 in 1.2 mi NW 16.1 mph 19.6 mph N/A Snow Light Snow
9:55 AM 10.4 °F -5.4 °F 1.9 °F 69% 30.45 in 1.8 mi NW 13.8 mph 23.0 mph N/A Snow Light Snow
10:15 AM 10.8 °F -4.3 °F 1.6 °F 67% 30.46 in 2.0 mi NNW 12.7 mph 19.6 mph N/A Snow Light Snow
10:35 AM 11.1 °F -2.4 °F 1.8 °F 66% 30.46 in 3.0 mi NNW 10.4 mph 19.6 mph N/A Snow Light Snow
10:55 AM 11.3 °F -2.9 °F 1.9 °F 66% 30.46 in 7.0 mi NNW 11.5 mph 17.3 mph N/A   Clear
11:15 AM 11.7 °F -3.2 °F 2.1 °F 66% 30.48 in 5.0 mi WNW 12.7 mph - N/A Snow Light Snow
11:35 AM 11.7 °F -3.2 °F 1.8 °F 65% 30.48 in 3.0 mi NW 12.7 mph - N/A Snow Light Snow
11:55 AM 11.8 °F -1.5 °F 1.6 °F 63% 30.47 in 3.0 mi NW 10.4 mph - N/A   Haze
12:15 PM 12.2 °F -3.1 °F 1.6 °F 63% 30.48 in 7.0 mi NW 13.8 mph - N/A   Scattered Clouds
12:35 PM 12.6 °F -0.6 °F 2.1 °F 63% 30.47 in 10.0 mi NW 10.4 mph - N/A   Scattered Clouds
12:55 PM 12.9 °F -0.2 °F 2.5 °F 63% 30.47 in 10.0 mi NW 10.4 mph 17.3 mph N/A   Overcast
1:15 PM 13.1 °F -0.7 °F 2.8 °F 64% 30.48 in 10.0 mi NW 11.5 mph 18.4 mph N/A   Overcast
1:35 PM 13.1 °F 0.1 °F 3.2 °F 65% 30.48 in 10.0 mi WNW 10.4 mph - N/A Snow Light Snow
1:55 PM 13.5 °F 0.5 °F 3.7 °F 65% 30.48 in 7.0 mi NW 10.4 mph - N/A Snow Light Snow
2:15 PM 13.8 °F 3.7 °F 4.3 °F 66% 30.49 in 10.0 mi NW 6.9 mph - N/A Snow Light Snow
2:35 PM 13.8 °F 1.8 °F 4.1 °F 65% 30.51 in 7.0 mi NW 9.2 mph 18.4 mph N/A Snow Light Snow
2:55 PM 13.3 °F -1.1 °F 3.6 °F 65% 30.51 in 10.0 mi NW 12.7 mph - N/A Snow Light Snow
3:15 PM 13.5 °F 1.3 °F 3.4 °F 64% 30.52 in 10.0 mi NW 9.2 mph 16.1 mph N/A Snow Light Snow
3:35 PM 13.6 °F -0.7 °F 3.4 °F 64% 30.52 in 7.0 mi NW 12.7 mph 17.3 mph N/A Snow Light Snow
3:55 PM 13.1 °F -0.7 °F 3.2 °F 65% 30.53 in 4.0 mi NW 11.5 mph 16.1 mph N/A Snow Light Snow
4:15 PM 12.7 °F -0.4 °F 3.0 °F 65% 30.53 in 5.0 mi NNW 10.4 mph - N/A Snow Light Snow
4:35 PM 12.4 °F -1.6 °F 3.0 °F 66% 30.53 in 10.0 mi NW 11.5 mph - N/A Snow Light Snow
4:55 PM 11.7 °F -0.9 °F 2.7 °F 67% 30.54 in 10.0 mi NW 9.2 mph - N/A Snow Light Snow
5:15 PM 10.8 °F -1.1 °F 1.8 °F 67% 30.56 in 10.0 mi NW 8.1 mph - N/A Snow Light Snow
5:35 PM 10.2 °F 0.6 °F 1.6 °F 68% 30.56 in 10.0 mi NW 5.8 mph - N/A   Mostly Cloudy
5:55 PM 9.5 °F -2.6 °F 0.9 °F 68% 30.56 in 10.0 mi NW 8.1 mph - N/A   Scattered Clouds
6:15 PM 9.0 °F -0.9 °F -0.0 °F 67% 30.57 in 10.0 mi NW 5.8 mph - N/A   Scattered Clouds
6:35 PM 8.6 °F -1.3 °F -0.4 °F 67% 30.58 in 10.0 mi NW 5.8 mph - N/A   Scattered Clouds
6:55 PM 8.1 °F -4.3 °F -0.6 °F 68% 30.58 in 10.0 mi NW 8.1 mph - N/A   Clear
7:15 PM 7.9 °F -3.5 °F -0.9 °F 67% 30.58 in 10.0 mi NW 6.9 mph - N/A   Clear
7:35 PM 7.3 °F -5.2 °F -1.5 °F 67% 30.58 in 10.0 mi NW 8.1 mph - N/A   Clear
7:55 PM 7.2 °F -1.5 °F -1.7 °F 67% 30.59 in 10.0 mi WNW 4.6 mph - N/A   Clear
8:15 PM 6.8 °F -2.0 °F -2.2 °F 67% 30.60 in 10.0 mi WNW 4.6 mph - N/A   Clear
8:35 PM 6.6 °F -3.7 °F -2.4 °F 67% 30.61 in 10.0 mi NW 5.8 mph - N/A   Clear
8:55 PM 5.9 °F -1.1 °F -2.9 °F 67% 30.62 in 10.0 mi WNW 3.5 mph - N/A   Clear
9:15 PM 5.7 °F -1.3 °F -2.9 °F 68% 30.63 in 10.0 mi West 3.5 mph - N/A   Clear
9:35 PM 5.7 °F -1.3 °F -2.9 °F 68% 30.63 in 10.0 mi WNW 3.5 mph - N/A   Clear
9:55 PM 5.4 °F -3.6 °F -2.9 °F 69% 30.63 in 10.0 mi WNW 4.6 mph - N/A   Clear
10:15 PM 4.8 °F -4.3 °F -3.5 °F 69% 30.63 in 10.0 mi WNW 4.6 mph - N/A   Clear
10:35 PM 4.3 °F -2.9 °F -3.5 °F 70% 30.63 in 10.0 mi WNW 3.5 mph - N/A   Clear
10:55 PM 4.5 °F -4.7 °F -3.5 °F 70% 30.63 in 10.0 mi WNW 4.6 mph - N/A   Clear
11:15 PM 4.1 °F -5.1 °F -3.6 °F 70% 30.62 in 10.0 mi NW 4.6 mph - N/A   Clear
11:35 PM 4.3 °F -6.5 °F -3.5 °F 70% 30.61 in 10.0 mi NW 5.8 mph - N/A   Clear
11:55 PM 4.1 °F -6.7 °F -3.5 °F 71% 30.61 in 10.0 mi NW 5.8 mph - N/A   Clear